Weather Roundup
Issued by NWS Corpus Christi, TX

Home | Current Version | Previous Version | Text Only | Print | Product List | Glossary On
Versions: 1 2 3 4 5 6 7 8 9 10 11 12 13 14 15 16 17 18 19 20 21 22 23 24 25 26 27 28 29 30 31 32 33 34 35 36 37 38 39 40 41 42 43 44 45 46 47 48 49 50
000
ASUS44 KCRP 281610
HRRCRP

SOUTH TEXAS REGIONAL WEATHER ROUNDUP
NATIONAL WEATHER SERVICE CORPUS CHRISTI TX
1100 AM CDT THU JUL 28 2016


TXZ229>244-281700-
...CORPUS CHRISTI AREA OBSERVATIONS...

CITY           SKY/WX    TMP DP  RH WIND       PRES   REMARKS
CORPUS CHRISTI PTSUNNY   91  76  61 SE15G21   29.97F HX 103
NAS CORPUS CHR PTSUNNY   87  78  74 S12       29.98F HX 100
ROCKPORT       MOSUNNY   90  76  63 S12G17    29.98S HX 101
KINGSVILLE NAS PTSUNNY   91  78  65 SE14      29.97F HX 106
ALICE          MOSUNNY   93  73  52 S14G22    29.96F HX 102
FALFURRIAS     SUNNY     91  73  55 SE12G18   29.96F HX  99
$$

...VICTORIA AREA OBSERVATIONS...

CITY           SKY/WX    TMP DP  RH WIND       PRES   REMARKS
VICTORIA       CLOUDY    91  75  59 S10       29.99F HX 101
BEEVILLE       FAIR      88  77  70 S12       29.99F HX 101
PLEASANTON     PTSUNNY   86  73  64 S8        30.00F HX  93
SAN ANTONIO    PTSUNNY   86  74  67 S7        30.03S HX  94
$$

...LAREDO AREA OBSERVATIONS...

CITY           SKY/WX    TMP DP  RH WIND       PRES   REMARKS
LAREDO         MOSUNNY   88  74  63 S14       29.97F HX  96
COTULLA        MOSUNNY   88  74  63 S7        29.98S HX  96
DEL RIO        CLOUDY    83  72  69 SE6       29.99F
MCALLEN        MOSUNNY   94  73  50 S20G28    29.96S HX 103
HEBBRONVILLE   MOSUNNY   90  71  53 S13G20    29.99S HX  96
$$

...OTHER TEXAS OBSERVATIONS...

CITY           SKY/WX    TMP DP  RH WIND       PRES   REMARKS
BROWNSVILLE    MOSUNNY   93  74  53 S18       29.97S HX 103
HOUSTON        PTSUNNY   89  76  65 SW8       30.01F HX 100
COL. STATION   MOSUNNY   86  77  74 SW12      30.01F HX  97
AUSTIN         CLOUDY    86  76  71 SW9       30.02S HX  96
WACO           CLOUDY    85  72  65 SW10      30.02S HX  91
FORT WORTH     PTSUNNY   88  71  57 W12       29.99S HX  94
WICHITA FALLS  SUNNY     88  72  58 CALM      29.98F HX  94
LUBBOCK        MOSUNNY   85  60  42 NE8       30.12F
EL PASO        MOSUNNY   87  56  34 VRB6      30.12S
$$

...MARINE OBSERVATIONS...

STATION/POSITION TIME  SKY/WX   TEMP    WIND        PRES    VSBY  WAVE   SWELL
                                AIR SEA DIR/SP/G                  HT/PER HT/PER
                 (UTC)          (F)     (DEG/KT/KT) (MB)    (MI)  (FT/S) (FT/S)
PORT ARANSAS     1600            85 86  150/ 11/ 12 1015.3F
BUOY 90 E PORT A 1550            86 86  160/  4/  8 1016.0F         4/ 6   3/ 6
BUOY 45 SE BAFFI 1550            85 85  160/ 12/ 14 1014.9F         3/ 6   2/ 6
BUOY 200 E PT IS 1550            86 86  120/ 10/ 12 1016.3R         2/ 6   2/ 6
BUOY 15 E GALVES 1550            86 86  200/  8/ 10 1016.5S         3/ 6   3/ 6
$$



USA.gov is the U.S. government's official web portal to all federal, state and local government web resources and services.